Weather in Sidory

Russia / Volgograd Oblast     50°07′21″N   43°20′10″E
temp.,
°C
wind,
m/s
gust,
m/s
humid.,
%
clouds,
%
prec.,
mm/h
press.,
hPa
HPBL,
m
28 february, sun
sun2800:00−4nnw6108073 0.1 1011614
03:00−5nnw588067 0.1 1013585
06:00−7nnw468476 0.0 1014518
09:00−6nnw467979 0.0 1015505
12:00−4nw457172 0.0 1016628
15:00−2nw577482 0.0 1015681
18:00−3nnw368294 0.0 1016539
21:00−3ne119097 0.1 1018143
1 march, mon
mon100:00−4ene2293100 0.1 1019138
03:00−5ene239296 0.1 1020122
06:00−6ene239199 0.1 1022149
09:00−6ne228399 0.1 1024255
12:00−4n337291 0.0 1025608
15:00−2nnw346792 0.0 1026674
18:00−4nnw247847 0.0 1026215
21:00−5nw118323 0.0 102767
2 march, tue
tue200:00−5wsw24850 0.0 102697
03:00−5wsw488917 0.0 1025222
06:00−4wsw51189100 0.0 1023389
09:00−2wsw71380100 0.0 1021672
12:00+1wsw91475100 0.0 1018774
15:00+1wsw91480100 0.0 1015854
18:000wsw81594100 0.3 1012712
21:00+1w61397100 2.0 1011584
3 march, wed
wed300:000w5998100 0.4 1009384
03:000wnw4798100 0.7 1008317
06:00−1nnw4993100 0.7 1008428
09:00−1nnw71088100 0.7 1011589
12:000nnw697662 0.0 1012911
15:00+1nw7107271 0.1 10141199
18:00−1nw5108398 0.1 1015666
21:00−2nw6119092 0.1 1018696
4 march, thu
thu400:00−4nw5108392 0.1 1020642
03:00−4wnw488352 0.1 1020378
06:00−4wsw49870 0.0 1020251
09:00−1wsw711770 0.0 1019540
12:00+2wsw812650 0.0 10171037
15:00+4wsw914551 0.0 10151208
18:00+2sw716640 0.0 1013602
21:00+1wsw817700 0.0 1013640